Moses Lake, WA
on Monday, November 12, 2012

Monday
Previous Day Next Day
Daily Summary
 ActualAverageRecord
Temperature
Mean Temperature °F 39°F  
Max Temperature 36°F 48°F 68°F (1999)
Min Temperature 32°F 30°F 10°F (1985)
Degree Days
Heating Degree Days 31 26  
Month to date heating degree days 263 288  
Since 1 July heating degree days 788 925  
Cooling Degree Days 0 0  
Month to date cooling degree days 0 0  
Year to date cooling degree days 719 615  
Moisture
Dew Point 30°F   
Average Humidity 86    
Maximum Humidity 89    
Minimum Humidity 82    
Precipitation
Precipitation 0.33 in 0.04 in 0.33 in (2012)
Month to date precipitation 0.62 0.46  
Year to date precipitation 7.22 6.93  
Wind
Wind Speed 2 mph   
Max Wind Speed 6 mph   
Max Gust Speed 6 mph   
Visibility 4 miles   
Events Fog , Rain , Snow   

Key: T is trace of precipitation, MM is missing value
Source: NWS Daily Summary
Time(PST)TemperatureDew PointHumidity Pressure Visibility Wind DirectionWind SpeedGust SpeedPrecipitationEvents Conditions
12:10 AM 33.8°F 30.2°F 87% 30.25 in 1.0 miles Calm Calm - 0.02 in Snow Light Snow
12:52 AM 33.1°F 30.0°F 89% 30.28 in 1.2 miles Calm Calm - 0.05 in Snow Light Snow
1:15 AM 33.8°F 30.2°F 87% 30.24 in 1.0 miles Calm Calm - 0.02 in Snow Light Snow
1:42 AM 33.8°F 30.2°F 87% 30.24 in 1.0 miles Calm Calm - 0.07 in Snow Light Snow
1:52 AM 33.1°F 30.9°F 92% 30.28 in 1.2 miles Calm Calm - 0.08 in Snow Light Snow
2:52 AM 33.1°F 30.0°F 89% 30.27 in 1.5 miles SSE 4.6 mph - 0.03 in Snow Light Snow
3:52 AM 33.8°F 30.2°F 87% 30.22 in 1.8 miles Calm Calm - N/A Snow Light Snow
4:01 AM 33.8°F 30.2°F 87% 30.21 in 3.0 miles Calm Calm - 0.00 in Snow Light Snow
4:15 AM 33.8°F 30.2°F 87% 30.22 in 2.5 miles Calm Calm - N/A Snow Light Snow
4:34 AM 33.8°F 30.2°F 87% 30.21 in 3.0 miles Calm Calm - N/A Snow Light Snow
4:52 AM 33.1°F 30.0°F 89% 30.25 in 4.0 miles NNW 3.5 mph - 0.02 in Snow Light Snow
5:19 AM 33.8°F 30.2°F 87% 30.20 in 4.0 miles NNW 4.6 mph - 0.00 in   Overcast
5:47 AM 33.8°F 30.2°F 87% 30.20 in 4.0 miles North 3.5 mph - 0.00 in   Overcast
5:52 AM 33.1°F 30.0°F 89% 30.24 in 4.0 miles North 3.5 mph - 0.00 in   Overcast
6:52 AM 33.1°F 30.0°F 89% 30.24 in 7.0 miles North 4.6 mph - N/A   Overcast
7:40 AM 33.8°F 30.2°F 87% 30.20 in 6.0 miles North 3.5 mph - N/A   Overcast
7:52 AM 33.1°F 30.0°F 89% 30.25 in 4.0 miles NNW 4.6 mph - 0.00 in   Overcast
8:24 AM 33.8°F 30.2°F 87% 30.21 in 4.0 miles Calm Calm - 0.02 in   Overcast
8:52 AM 33.1°F 30.0°F 89% 30.25 in 4.0 miles West 3.5 mph - 0.03 in   Overcast
9:02 AM 33.8°F 30.2°F 87% 30.21 in 2.5 miles Calm Calm - 0.01 in Snow Light Snow
9:08 AM 33.8°F 30.2°F 87% 30.21 in 3.0 miles Calm Calm - 0.01 in Rain Light Rain
9:27 AM 33.8°F 30.2°F 87% 30.21 in 2.0 miles Calm Calm - 0.03 in Snow Light Snow
9:31 AM 33.8°F 30.2°F 87% 30.21 in 1.8 miles NW 3.5 mph - 0.03 in Snow Light Snow
9:52 AM 33.1°F 30.9°F 92% 30.25 in 1.8 miles NW 3.5 mph - 0.05 in Snow Light Snow
10:14 AM 33.8°F 30.2°F 87% 30.21 in 2.5 miles Calm Calm - 0.01 in   Overcast
10:49 AM 33.8°F 30.2°F 87% 30.22 in 3.0 miles WNW 3.5 mph - 0.02 in   Overcast
10:52 AM 33.1°F 30.0°F 89% 30.26 in 3.0 miles WNW 3.5 mph - 0.02 in   Overcast
11:40 AM 33.8°F 30.2°F 87% 30.21 in 4.0 miles West 3.5 mph - N/A   Overcast
11:52 AM 34.0°F 30.9°F 89% 30.25 in 3.0 miles Calm Calm - N/A   Overcast
12:52 PM 34.0°F 30.9°F 89% 30.24 in 4.0 miles Calm Calm - N/A   Overcast
1:52 PM 35.1°F 30.9°F 85% 30.25 in 6.0 miles West 4.6 mph - N/A   Overcast
2:52 PM 35.1°F 30.9°F 85% 30.24 in 6.0 miles Calm Calm - N/A   Overcast
3:23 PM 35.6°F 30.2°F 81% 30.20 in 5.0 miles Calm Calm - N/A   Overcast
3:52 PM 34.0°F 30.9°F 89% 30.25 in 7.0 miles Calm Calm - N/A   Overcast
4:27 PM 33.8°F 30.2°F 87% 30.21 in 6.0 miles Calm Calm - N/A   Overcast
4:52 PM 34.0°F 30.9°F 89% 30.25 in 7.0 miles Calm Calm - N/A   Overcast
5:35 PM 33.8°F 30.2°F 87% 30.22 in 1.5 miles NNW 4.6 mph - N/A   Overcast
5:45 PM 33.8°F 30.2°F 87% 30.22 in 1.5 miles NNW 4.6 mph - N/A   Overcast
5:49 PM 33.8°F 30.2°F 87% 30.22 in 3.0 miles Calm Calm - N/A   Overcast
5:52 PM 33.1°F 30.0°F 89% 30.26 in 3.0 miles Calm Calm - N/A   Overcast
6:00 PM 33.8°F 30.2°F 87% 30.22 in 2.5 miles NW 3.5 mph - N/A   Mostly Cloudy
6:08 PM 32.0°F 30.2°F 93% 30.22 in 3.0 miles North 3.5 mph - N/A   Scattered Clouds
6:16 PM 32.0°F 28.4°F 87% 30.22 in 1.8 miles Calm Calm - N/A   Partly Cloudy
6:23 PM 32.0°F 30.2°F 93% 30.23 in 0.8 miles Calm Calm - N/A   Mist
6:31 PM 33.8°F 30.2°F 87% 30.23 in 0.5 miles Calm Calm - N/A Fog Fog
6:52 PM 33.1°F 30.0°F 89% 30.28 in 0.8 miles Calm Calm - N/A   Overcast
7:52 PM 34.0°F 30.9°F 89% 30.28 in 7.0 miles NNW 3.5 mph - N/A   Overcast
8:52 PM 35.1°F 30.9°F 85% 30.30 in 10.0 miles Calm Calm - N/A   Overcast
9:52 PM 34.0°F 30.0°F 85% 30.30 in 8.0 miles North 3.5 mph - N/A   Overcast
10:52 PM 33.1°F 30.0°F 89% 30.32 in 9.0 miles Calm Calm - N/A   Overcast
11:38 PM 33.8°F 28.4°F 81% 30.27 in 9.0 miles Calm Calm - N/A   Scattered Clouds
11:52 PM 33.1°F 28.9°F 85% 30.32 in 10.0 miles WNW 3.5 mph - N/A   Clear
Moon Phase
Nov. 12 Nov. 13 Nov. 20 Nov. 28 Dec. 06
Sunrise:06:57 AM (PST) Moon Rise:05:26 AM (PST)11/12
Sunset:04:24 PM (PST) Moon Set:03:35 PM (PST)11/12

Copyright © 2014 The Weather Underground, Inc.